TimeEDT,TemperatureF,Dew PointF,Humidity,Sea Level PressureIn,VisibilityMPH,Wind Direction,Wind SpeedMPH,Gust SpeedMPH,PrecipitationIn,Events,Conditions,WindDirDegrees,DateUTC
12:53 AM,55.9,42.1,60,30.22,10.0,NNE,3.5,-,N/A,,Clear,30,2012-09-24 04:53:00
1:53 AM,52.0,44.1,74,30.22,10.0,NNW,3.5,-,N/A,,Clear,330,2012-09-24 05:53:00
2:53 AM,51.1,43.0,74,30.23,10.0,NNW,3.5,-,N/A,,Clear,340,2012-09-24 06:53:00
3:53 AM,50.0,43.0,77,30.22,10.0,Calm,Calm,-,N/A,,Clear,0,2012-09-24 07:53:00
4:53 AM,48.9,44.1,83,30.22,10.0,Calm,Calm,-,N/A,,Clear,0,2012-09-24 08:53:00
5:53 AM,50.0,43.0,77,30.22,10.0,Calm,Calm,-,N/A,,Clear,0,2012-09-24 09:53:00
6:53 AM,48.0,43.0,83,30.23,10.0,Calm,Calm,-,N/A,,Clear,0,2012-09-24 10:53:00
7:53 AM,48.9,43.0,80,30.24,10.0,Calm,Calm,-,N/A,,Scattered Clouds,0,2012-09-24 11:53:00
8:53 AM,55.0,44.1,67,30.25,10.0,North,5.8,-,N/A,,Scattered Clouds,10,2012-09-24 12:53:00
9:53 AM,57.9,43.0,58,30.26,10.0,NNE,10.4,-,N/A,,Partly Cloudy,30,2012-09-24 13:53:00
10:53 AM,63.0,43.0,48,30.26,10.0,NNE,8.1,-,N/A,,Partly Cloudy,20,2012-09-24 14:53:00
11:53 AM,66.0,41.0,40,30.25,10.0,NE,8.1,-,N/A,,Partly Cloudy,50,2012-09-24 15:53:00
12:53 PM,66.9,42.1,40,30.24,10.0,NE,8.1,-,N/A,,Scattered Clouds,40,2012-09-24 16:53:00
1:53 PM,69.1,43.0,39,30.22,10.0,NNW,9.2,-,N/A,,Scattered Clouds,330,2012-09-24 17:53:00
2:53 PM,72.0,42.1,34,30.19,10.0,NNE,8.1,-,N/A,,Scattered Clouds,30,2012-09-24 18:53:00
3:53 PM,72.0,39.9,31,30.17,10.0,Calm,Calm,-,N/A,,Scattered Clouds,0,2012-09-24 19:53:00
4:53 PM,73.9,39.9,29,30.15,10.0,NNW,4.6,-,N/A,,Scattered Clouds,340,2012-09-24 20:53:00
5:53 PM,72.0,39.9,31,30.14,10.0,Calm,Calm,-,N/A,,Scattered Clouds,0,2012-09-24 21:53:00
6:53 PM,71.1,41.0,34,30.14,10.0,SSE,3.5,-,N/A,,Scattered Clouds,150,2012-09-24 22:53:00
7:53 PM,63.0,48.9,60,30.15,10.0,WNW,3.5,-,N/A,,Scattered Clouds,290,2012-09-24 23:53:00
8:53 PM,59.0,50.0,72,30.16,10.0,Calm,Calm,-,N/A,,Scattered Clouds,0,2012-09-25 00:53:00
9:53 PM,57.0,50.0,77,30.17,10.0,Calm,Calm,-,N/A,,Scattered Clouds,0,2012-09-25 01:53:00
10:53 PM,55.0,48.9,80,30.16,10.0,Calm,Calm,-,N/A,,Scattered Clouds,0,2012-09-25 02:53:00
11:53 PM,53.1,48.0,83,30.17,10.0,Calm,Calm,-,N/A,,Partly Cloudy,0,2012-09-25 03:53:00